Total_Precipitation_Accumulation
0.02 0.03 0.06 0.28 0.34 1.93 1.76 1.95 2.31 1.79 1.09 1.15 1.73 1.96 2.07 0.68 0.80 1.43 1.53 0.91 0.84 0.09 0.31 0.39 0.31 0.24 1.14 0.50 0.20 0.17 0.23 0.41 0.16 1.00 0.55 0.43 0.11 0.17 0.18 0.18 0.23 0.21 0.20 0.24 0.48 0.92 0.81 0.60 0.46 0.68 0.70 0.26 0.11 0.12 0.16 0.09 0.08 0.06 0.07 0.05 0.03 0.03 0.04 0.04 0.02 0.03 0.02 0.05 0.05 0.14 0.11 0.19 0.23 0.13 0.08 0.18 0.35 0.31 0.39 0.40 0.38 0.52 0.37 0.33 0.43 0.51 0.33 0.42 0.46 0.52 0.43 0.49 0.51 0.49 0.46 0.44 0.40
0.03 0.05 0.07 0.69 1.16 3.26 2.26 1.34 1.03 1.29 1.08 1.46 1.77 1.16 1.19 1.08 1.40 1.10 1.42 1.47 0.44 0.12 0.08 0.21 0.04 0.28 0.33 0.02 0.05 0.04 0.12 0.18 0.20 0.09 0.14 0.15 0.23 0.25 0.18 0.17 0.15 0.14 0.12 0.19 0.30 0.43 0.40 0.57 0.41 0.42 0.53 0.18 0.13 0.12 0.07 0.11 0.08 0.08 0.04 0.05 0.04 0.04 0.03 0.03 0.03 0.02 0.05 0.08 0.12 0.19 0.21 0.17 0.12 0.10 0.18 0.33 0.41 0.49 0.45 0.34 0.59 0.62 0.49 0.54 0.56 0.37 0.61 0.53 0.48 0.55 0.63 0.57 0.56 0.52 0.54 0.57 0.58
0.07 0.05 0.19 0.36 1.31 1.24 1.89 1.49 1.85 1.52 1.54 1.16 1.54 1.54 1.40 1.24 1.30 1.27 1.01 1.14 0.13 0.06 0.02 0.06 0.14 0.51 0.11 0.09 0.17 0.32 0.19 0.13 0.10 0.04 0.22 0.29 0.33 0.60 0.19 0.12 0.15 0.10 0.12 0.12 0.19 0.49 0.42 0.52 0.21 0.34 0.38 0.17 0.08 0.07 0.05 0.06 0.07 0.10 0.07 0.07 0.04 0.05 0.05 0.08 0.10 0.12 0.10 0.13 0.13 0.16 0.10 0.08 0.15 0.23 0.36 0.50 0.43 0.49 0.41 0.56 0.62 0.80 0.62 0.52 0.51 0.50 0.63 0.57 0.60 0.62 0.63 0.55 0.79 0.60 0.51 0.73 0.60
0.11 0.09 0.59 0.49 2.02 1.89 2.51 2.13 1.00 1.46 1.36 1.24 1.29 1.32 1.56 1.67 0.90 0.90 0.77 0.35 0.17 0.04 0.03 0.06 0.43 0.27 0.21 0.22 0.09 0.09 0.09 0.22 0.02 0.02 0.29 0.26 0.23 0.17 0.14 0.13 0.10 0.08 0.11 0.16 0.32 0.28 0.28 0.25 0.16 0.43 0.23 0.15 0.07 0.09 0.07 0.05 0.05 0.06 0.09 0.05 0.07 0.10 0.07 0.07 0.09 0.08 0.09 0.17 0.07 0.04 0.04 0.08 0.12 0.29 0.35 0.51 0.66 0.69 0.82 0.63 0.89 0.71 0.65 0.78 0.54 0.82 0.49 0.66 0.74 0.70 0.59 0.61 0.55 0.55 0.46 0.63 0.49
0.25 0.19 0.48 0.98 1.48 2.04 1.47 1.62 1.84 1.53 1.38 1.44 1.67 1.66 1.56 1.41 1.04 0.68 0.73 0.31 0.10 0.16 0.13 0.10 0.06 0.24 0.51 0.46 0.09 0.28 0.27 0.15 0.03 0.02 0.07 0.13 0.05 0.14 0.14 0.08 0.11 0.10 0.18 0.23 0.26 0.18 0.25 0.27 0.25 0.35 0.23 0.13 0.10 0.07 0.04 0.06 0.06 0.06 0.07 0.08 0.09 0.12 0.10 0.09 0.05 0.06 0.10 0.08 0.06 0.09 0.19 0.13 0.21 0.29 0.34 0.47 0.51 0.49 0.81 0.85 0.83 0.73 0.83 0.70 0.80 0.60 0.66 0.74 0.70 0.73 0.57 0.58 0.43 0.34 0.57 0.53 0.51
0.26 0.37 0.96 1.57 3.45 1.42 0.88 1.36 1.68 1.10 1.20 0.97 1.97 1.15 1.08 1.59 1.53 0.71 0.25 0.06 0.25 0.29 0.21 0.14 0.14 0.10 0.06 0.04 0.03 0.19 0.16 0.20 0.14 0.07 0.05 0.14 0.12 0.10 0.09 0.11 0.12 0.16 0.19 0.13 0.17 0.17 0.27 0.21 0.25 0.27 0.12 0.11 0.10 0.08 0.04 0.04 0.07 0.13 0.10 0.20 0.10 0.10 0.05 0.11 0.08 0.08 0.09 0.05 0.10 0.11 0.13 0.15 0.21 0.30 0.43 0.42 0.45 0.63 0.64 0.61 0.78 0.77 0.62 0.92 0.81 0.64 0.51 0.71 0.67 0.64 0.59 0.54 0.40 0.49 0.54 0.62 0.49
0.66 1.01 1.50 1.06 1.37 1.29 1.33 1.36 0.98 1.36 1.29 1.21 1.30 1.28 1.92 1.62 1.14 0.73 0.53 0.25 0.25 0.44 0.22 0.06 0.09 0.14 0.22 0.11 0.13 0.06 0.05 0.05 0.12 0.08 0.07 0.05 0.10 0.06 0.06 0.09 0.12 0.19 0.16 0.12 0.22 0.20 0.31 0.13 0.28 0.24 0.33 0.08 0.09 0.06 0.03 0.04 0.04 0.15 0.10 0.15 0.14 0.12 0.10 0.14 0.06 0.09 0.06 0.07 0.08 0.11 0.22 0.21 0.22 0.28 0.32 0.35 0.42 0.41 0.78 0.83 0.79 0.64 0.52 0.67 0.57 0.65 0.56 0.63 0.47 0.60 0.50 0.49 0.61 0.60 0.69 0.70 0.56
0.25 1.74 1.95 1.62 1.93 0.97 1.34 0.98 1.04 1.14 1.13 1.25 1.23 1.32 1.64 1.98 1.19 1.11 0.63 0.77 0.14 0.36 0.20 0.05 0.06 0.17 0.43 0.05 0.47 0.10 0.05 0.06 0.08 0.05 0.05 0.05 0.04 0.07 0.09 0.09 0.14 0.17 0.14 0.14 0.18 0.12 0.18 0.10 0.30 0.23 0.12 0.08 0.09 0.09 0.07 0.08 0.13 0.14 0.13 0.15 0.11 0.13 0.09 0.09 0.09 0.11 0.09 0.10 0.12 0.20 0.25 0.25 0.23 0.16 0.18 0.35 0.35 0.47 0.45 0.49 0.52 0.39 0.63 0.61 0.68 0.63 0.41 0.53 0.44 0.69 0.70 0.69 0.48 0.52 0.52 0.71 0.94
0.69 0.85 1.11 1.22 1.55 1.41 0.99 0.65 0.92 0.77 0.80 0.98 1.55 2.00 1.90 0.91 1.11 1.03 1.13 0.56 0.26 0.25 0.14 0.11 0.07 0.22 0.13 0.26 0.20 0.19 0.11 0.08 0.05 0.04 0.02 0.03 0.07 0.04 0.07 0.07 0.08 0.20 0.11 0.20 0.16 0.17 0.22 0.15 0.25 0.16 0.13 0.07 0.06 0.07 0.07 0.16 0.21 0.23 0.20 0.13 0.11 0.08 0.11 0.07 0.12 0.11 0.10 0.10 0.13 0.17 0.25 0.20 0.10 0.20 0.18 0.27 0.42 0.58 0.46 0.44 0.58 0.48 0.59 0.69 0.59 0.65 0.54 0.50 0.61 0.64 0.63 0.68 0.60 0.48 0.75 0.71 0.62
1.09 0.65 2.08 1.48 0.66 1.31 0.46 0.71 1.22 1.27 2.18 0.98 1.49 1.53 1.08 0.64 1.32 1.20 0.80 0.69 0.41 0.13 0.15 0.10 0.09 0.61 0.19 0.19 0.18 0.13 0.19 0.07 0.06 0.05 0.03 0.03 0.05 0.06 0.05 0.06 0.06 0.18 0.17 0.13 0.10 0.08 0.14 0.22 0.13 0.09 0.10 0.05 0.03 0.06 0.15 0.21 0.32 0.30 0.12 0.09 0.06 0.06 0.07 0.07 0.08 0.08 0.08 0.16 0.16 0.18 0.16 0.11 0.07 0.13 0.30 0.32 0.38 0.40 0.27 0.38 0.49 0.50 0.40 0.42 0.57 0.64 0.69 0.54 0.81 0.85 0.77 0.72 0.50 0.44 0.59 0.67 0.61
1.66 0.57 0.92 1.14 1.30 1.04 0.99 0.46 0.61 0.75 1.29 1.25 1.47 1.63 1.63 0.76 0.70 1.20 1.58 1.22 0.33 0.15 0.09 0.08 0.16 0.16 0.11 0.20 0.24 0.16 0.06 0.03 0.03 0.07 0.04 0.04 0.05 0.03 0.06 0.06 0.10 0.09 0.18 0.15 0.04 0.11 0.14 0.21 0.19 0.09 0.05 0.04 0.06 0.15 0.19 0.13 0.17 0.17 0.06 0.10 0.09 0.07 0.08 0.08 0.12 0.17 0.12 0.13 0.15 0.13 0.13 0.09 0.11 0.21 0.22 0.34 0.25 0.33 0.21 0.32 0.32 0.44 0.40 0.45 0.57 0.63 0.70 0.65 0.84 0.92 0.67 0.54 0.54 0.66 0.83 0.61 0.52
0.62 0.52 1.34 1.37 1.30 1.00 1.19 0.89 0.98 1.56 1.32 1.39 1.78 1.95 1.02 1.04 1.07 0.72 0.83 0.69 0.35 0.06 0.08 0.10 0.29 0.11 0.08 0.09 0.23 0.31 0.07 0.05 0.05 0.03 0.04 0.05 0.04 0.03 0.04 0.05 0.08 0.09 0.04 0.08 0.07 0.10 0.12 0.18 0.21 0.24 0.08 0.08 0.07 0.05 0.09 0.15 0.10 0.07 0.04 0.07 0.06 0.04 0.08 0.07 0.07 0.14 0.15 0.12 0.09 0.12 0.08 0.14 0.14 0.09 0.13 0.16 0.23 0.25 0.29 0.35 0.32 0.43 0.45 0.71 0.75 0.54 0.59 0.78 0.82 0.79 0.78 0.61 0.56 0.76 0.98 0.58 0.48
0.76 0.34 1.39 0.98 1.04 0.65 0.80 0.94 1.26 1.47 1.20 1.35 1.90 1.04 1.02 0.76 1.08 0.96 0.99 0.63 0.43 0.11 0.07 0.23 0.01 0.09 0.19 0.13 0.24 0.13 0.07 0.05 0.06 0.02 0.04 0.05 0.03 0.03 0.06 0.05 0.08 0.07 0.07 0.04 0.08 0.06 0.07 0.14 0.15 0.13 0.11 0.12 0.06 0.12 0.14 0.11 0.10 0.05 0.05 0.05 0.05 0.02 0.07 0.04 0.07 0.13 0.09 0.10 0.08 0.05 0.09 0.13 0.18 0.13 0.16 0.16 0.23 0.26 0.23 0.37 0.35 0.44 0.40 0.51 0.58 0.53 0.68 0.73 0.75 0.99 0.61 0.56 0.75 0.66 1.01 0.74 0.35
0.25 0.46 0.83 1.15 0.87 0.85 0.77 1.21 0.89 0.84 1.41 1.34 1.54 1.20 1.01 0.95 1.20 1.23 0.76 1.00 0.48 0.48 0.07 0.03 0.03 0.07 0.17 0.07 0.53 0.18 0.10 0.08 0.04 0.04 0.03 0.04 0.04 0.05 0.04 0.06 0.06 0.10 0.04 0.05 0.06 0.06 0.07 0.09 0.14 0.15 0.21 0.32 0.46 0.26 0.19 0.10 0.07 0.07 0.05 0.03 0.04 0.03 0.06 0.06 0.15 0.13 0.07 0.07 0.05 0.08 0.06 0.07 0.09 0.23 0.23 0.25 0.39 0.42 0.32 0.30 0.38 0.39 0.44 0.46 0.51 0.78 0.34 0.81 0.89 0.76 0.59 0.43 0.45 0.40 0.78 0.35 0.42
0.39 0.04 0.18 0.61 0.79 0.38 0.37 0.76 0.55 0.38 2.14 1.78 1.24 1.30 1.13 0.92 1.51 0.92 0.97 0.67 0.61 0.31 0.05 0.01 0.08 0.11 0.19 0.03 0.13 0.06 0.06 0.06 0.02 0.04 0.04 0.05 0.04 0.05 0.06 0.07 0.07 0.06 0.06 0.06 0.07 0.05 0.05 0.06 0.09 0.10 0.20 0.18 0.23 0.23 0.22 0.26 0.11 0.12 0.04 0.03 0.06 0.08 0.09 0.08 0.12 0.08 0.05 0.04 0.05 0.10 0.10 0.16 0.24 0.31 0.21 0.17 0.19 0.23 0.28 0.29 0.29 0.33 0.40 0.29 0.35 0.35 0.65 0.67 0.54 0.50 0.46 0.36 0.37 0.24 0.26 0.17 0.17
0.09 0.27 0.47 0.88 1.10 0.90 0.41 0.28 0.29 0.42 1.63 1.77 0.94 0.96 1.70 1.03 0.88 1.01 1.23 1.38 0.41 0.45 0.05 0.13 0.02 0.37 0.16 0.03 0.03 0.01 0.01 0.03 0.02 0.03 0.05 0.12 0.09 0.08 0.09 0.07 0.08 0.10 0.07 0.09 0.11 0.07 0.06 0.07 0.07 0.13 0.22 0.24 0.26 0.20 0.18 0.13 0.09 0.05 0.04 0.02 0.03 0.06 0.04 0.04 0.04 0.05 0.07 0.09 0.11 0.20 0.25 0.21 0.33 0.18 0.23 0.20 0.24 0.22 0.22 0.34 0.29 0.28 0.25 0.30 0.23 0.22 0.36 0.41 0.60 0.43 0.46 0.23 0.21 0.32 0.17 0.16 0.13
0.05 0.27 0.39 0.43 1.16 0.50 0.25 0.32 0.10 1.37 0.62 0.90 0.82 1.44 1.27 1.24 0.94 0.76 0.68 0.75 0.44 0.28 0.38 0.09 0.05 0.01 0.02 0.00 0.01 0.00 0.01 0.01 0.01 0.04 0.07 0.16 0.18 0.23 0.16 0.20 0.18 0.19 0.13 0.12 0.08 0.09 0.10 0.06 0.05 0.12 0.14 0.15 0.11 0.10 0.11 0.16 0.16 0.08 0.06 0.02 0.04 0.07 0.11 0.09 0.07 0.09 0.07 0.17 0.10 0.18 0.18 0.17 0.18 0.25 0.26 0.21 0.22 0.28 0.16 0.16 0.31 0.20 0.20 0.16 0.14 0.17 0.46 0.31 0.45 0.44 0.52 0.40 0.25 0.29 0.14 0.19 0.24
0.33 0.43 0.35 0.46 0.57 0.69 0.28 0.49 0.17 0.29 1.43 0.43 0.31 0.66 1.23 1.12 0.80 1.14 0.74 0.74 0.55 0.32 0.31 0.01 0.01 0.01 0.01 0.00 0.00 0.00 0.01 0.01 0.03 0.05 0.11 0.12 0.11 0.16 0.17 0.17 0.18 0.20 0.14 0.20 0.15 0.12 0.10 0.08 0.06 0.11 0.16 0.17 0.07 0.06 0.06 0.10 0.18 0.12 0.10 0.11 0.15 0.13 0.08 0.11 0.14 0.16 0.17 0.15 0.19 0.19 0.19 0.17 0.24 0.38 0.44 0.46 0.36 0.25 0.31 0.10 0.14 0.27 0.17 0.12 0.18 0.36 0.70 0.44 0.43 0.33 0.31 0.38 0.24 0.15 0.14 0.18 0.29
0.04 0.29 0.28 0.67 0.62 0.72 0.13 0.41 0.08 0.49 1.03 0.54 0.44 0.59 1.20 1.25 1.43 0.87 0.55 0.43 0.48 0.25 0.23 0.02 0.05 0.02 0.01 0.00 0.00 0.01 0.01 0.02 0.02 0.01 0.03 0.04 0.07 0.04 0.04 0.08 0.11 0.13 0.20 0.17 0.19 0.10 0.08 0.07 0.06 0.12 0.10 0.13 0.07 0.06 0.05 0.10 0.12 0.13 0.15 0.12 0.10 0.21 0.22 0.08 0.06 0.12 0.09 0.13 0.11 0.27 0.26 0.21 0.18 0.34 0.37 0.20 0.35 0.28 0.15 0.12 0.13 0.15 0.08 0.12 0.18 0.33 0.29 0.39 0.48 0.36 0.27 0.24 0.16 0.06 0.27 0.21 0.22
0.01 0.09 0.31 0.34 0.21 0.25 0.12 0.33 0.15 0.08 0.40 0.59 0.39 0.49 0.81 1.13 0.84 0.81 0.86 0.41 0.11 0.36 0.06 0.04 0.03 0.01 0.01 0.01 0.00 0.01 0.01 0.02 0.01 0.01 0.02 0.02 0.01 0.02 0.06 0.04 0.06 0.06 0.08 0.05 0.10 0.13 0.07 0.09 0.07 0.07 0.12 0.10 0.08 0.11 0.11 0.09 0.18 0.15 0.16 0.14 0.14 0.07 0.10 0.09 0.17 0.12 0.12 0.33 0.21 0.21 0.29 0.14 0.13 0.34 0.21 0.17 0.26 0.27 0.33 0.20 0.23 0.18 0.12 0.10 0.14 0.44 0.30 0.42 0.44 0.26 0.12 0.07 0.12 0.22 0.28 0.31 0.33
0.04 0.01 0.15 0.37 0.44 0.22 0.35 0.31 0.18 0.02 0.40 0.48 0.57 0.36 0.52 0.59 0.93 0.62 0.57 0.42 0.40 0.45 0.09 0.02 0.00 0.01 0.02 0.00 0.00 0.00 0.01 0.02 0.02 0.00 0.01 0.01 0.02 0.02 0.02 0.02 0.02 0.03 0.05 0.03 0.09 0.10 0.08 0.06 0.09 0.12 0.08 0.06 0.04 0.08 0.04 0.12 0.11 0.08 0.12 0.10 0.13 0.07 0.11 0.11 0.08 0.12 0.08 0.19 0.11 0.25 0.15 0.16 0.16 0.12 0.21 0.13 0.32 0.35 0.54 0.44 0.48 0.33 0.30 0.29 0.25 0.60 0.56 0.53 0.27 0.24 0.25 0.17 0.30 0.25 0.20 0.22 0.21
0.00 0.04 0.10 0.11 0.15 0.19 0.22 0.21 0.12 0.05 0.01 0.42 0.44 0.19 0.64 0.29 0.59 0.41 1.12 0.80 0.67 0.50 0.05 0.07 0.00 0.00 0.01 0.00 0.00 0.00 0.01 0.02 0.01 0.01 0.01 0.00 0.00 0.01 0.01 0.03 0.02 0.04 0.05 0.06 0.06 0.09 0.09 0.07 0.07 0.10 0.10 0.06 0.06 0.06 0.05 0.09 0.08 0.08 0.10 0.10 0.11 0.11 0.07 0.06 0.05 0.17 0.14 0.06 0.15 0.14 0.16 0.09 0.09 0.07 0.14 0.20 0.24 0.33 0.31 0.48 0.53 0.23 0.21 0.16 0.28 0.65 0.35 0.30 0.49 0.36 0.24 0.26 0.20 0.16 0.11 0.09 0.13
0.00 0.00 0.01 0.01 0.12 0.33 0.19 0.02 0.02 0.01 0.24 0.37 0.46 0.32 0.31 0.56 0.94 0.31 0.36 1.18 1.06 0.55 0.19 0.03 0.00 0.00 0.00 0.00 0.00 0.00 0.00 0.00 0.01 0.00 0.01 0.00 0.01 0.01 0.01 0.01 0.02 0.02 0.04 0.05 0.03 0.04 0.07 0.09 0.06 0.09 0.09 0.09 0.04 0.04 0.06 0.06 0.06 0.04 0.09 0.09 0.07 0.08 0.06 0.09 0.23 0.09 0.10 0.05 0.13 0.09 0.16 0.20 0.14 0.08 0.11 0.14 0.11 0.10 0.13 0.27 0.70 0.34 0.43 0.27 0.49 0.78 0.13 0.25 0.24 0.11 0.07 0.14 0.12 0.13 0.09 0.14 0.22
0.00 0.00 0.01 0.00 0.01 0.01 0.03 0.07 0.00 0.01 0.00 0.30 0.19 0.04 0.29 0.41 0.44 0.36 0.31 0.50 0.66 0.43 0.18 0.04 0.01 0.00 0.00 0.00 0.00 0.00 0.00 0.00 0.00 0.00 0.00 0.00 0.00 0.00 0.00 0.00 0.00 0.02 0.03 0.02 0.04 0.04 0.09 0.05 0.04 0.07 0.06 0.09 0.03 0.04 0.06 0.05 0.04 0.04 0.09 0.07 0.07 0.04 0.10 0.14 0.15 0.09 0.07 0.06 0.02 0.09 0.05 0.08 0.14 0.09 0.06 0.05 0.06 0.10 0.18 0.31 0.15 0.21 0.30 0.39 0.40 0.07 0.29 0.32 0.20 0.07 0.10 0.11 0.10 0.08 0.10 0.09 0.14
0.00 0.00 0.00 0.00 0.00 0.00 0.00 0.01 0.00 0.00 0.00 0.13 0.21 0.20 0.41 0.30 0.31 0.13 0.69 0.34 0.15 0.54 0.21 0.07 0.00 0.00 0.00 0.02 0.00 0.00 0.00 0.00 0.01 0.01 0.01 0.00 0.01 0.01 0.00 0.01 0.00 0.01 0.01 0.02 0.03 0.07 0.05 0.04 0.06 0.06 0.06 0.04 0.03 0.04 0.04 0.06 0.03 0.05 0.05 0.06 0.05 0.08 0.17 0.09 0.08 0.04 0.05 0.05 0.06 0.06 0.03 0.13 0.20 0.07 0.08 0.11 0.07 0.08 0.17 0.12 0.25 0.24 0.18 0.16 0.17 0.38 0.15 0.16 0.30 0.11 0.12 0.14 0.13 0.10 0.11 0.22 0.04
0.00 0.00 0.00 0.01 0.00 0.00 0.00 0.00 0.00 0.06 0.06 0.02 0.16 0.44 0.38 0.26 0.19 0.50 0.84 0.32 0.57 0.36 0.06 0.03 0.02 0.00 0.00 0.00 0.00 0.00 0.00 0.00 0.00 0.00 0.00 0.00 0.00 0.00 0.01 0.01 0.00 0.01 0.01 0.01 0.02 0.04 0.02 0.06 0.04 0.05 0.04 0.03 0.03 0.05 0.04 0.03 0.03 0.04 0.04 0.03 0.05 0.03 0.04 0.03 0.03 0.08 0.04 0.03 0.05 0.06 0.03 0.07 0.08 0.05 0.04 0.06 0.08 0.11 0.18 0.12 0.13 0.10 0.18 0.17 0.30 0.24 0.22 0.24 0.28 0.15 0.13 0.10 0.04 0.10 0.11 0.05 0.05
0.00 0.00 0.00 0.00 0.00 0.00 0.00 0.00 0.00 0.01 0.08 0.14 0.08 0.36 0.32 0.35 0.39 0.54 0.22 0.16 0.20 0.21 0.15 0.16 0.01 0.00 0.00 0.00 0.01 0.00 0.00 0.00 0.01 0.00 0.00 0.00 0.00 0.00 0.00 0.00 0.00 0.00 0.01 0.04 0.01 0.04 0.02 0.04 0.04 0.03 0.04 0.03 0.03 0.03 0.03 0.02 0.02 0.03 0.03 0.04 0.03 0.02 0.02 0.02 0.03 0.03 0.02 0.04 0.03 0.03 0.04 0.03 0.09 0.05 0.11 0.14 0.14 0.04 0.08 0.11 0.13 0.27 0.23 0.27 0.12 0.13 0.22 0.16 0.12 0.09 0.06 0.16 0.19 0.15 0.10 0.07 0.04
0.00 0.00 0.00 0.00 0.00 0.00 0.00 0.00 0.00 0.00 0.06 0.09 0.06 0.22 0.06 0.28 0.11 1.12 0.31 0.27 0.16 0.26 0.31 0.14 0.02 0.01 0.00 0.00 0.00 0.01 0.01 0.00 0.00 0.00 0.00 0.00 0.00 0.00 0.00 0.00 0.01 0.00 0.00 0.01 0.01 0.01 0.02 0.02 0.03 0.02 0.03 0.03 0.03 0.02 0.03 0.03 0.03 0.03 0.03 0.03 0.02 0.02 0.02 0.02 0.01 0.03 0.02 0.03 0.02 0.03 0.04 0.02 0.08 0.14 0.08 0.10 0.08 0.13 0.12 0.14 0.24 0.49 0.55 0.22 0.19 0.29 0.26 0.25 0.16 0.10 0.06 0.12 0.17 0.24 0.05 0.05 0.01
0.00 0.00 0.00 0.00 0.00 0.00 0.00 0.00 0.00 0.00 0.05 0.14 0.08 0.15 0.09 0.14 0.35 0.50 0.16 0.21 0.42 0.26 0.43 0.33 0.07 0.00 0.01 0.00 0.00 0.00 0.01 0.00 0.00 0.00 0.00 0.00 0.00 0.00 0.00 0.00 0.00 0.00 0.03 0.00 0.01 0.01 0.02 0.02 0.03 0.02 0.02 0.03 0.02 0.02 0.02 0.01 0.02 0.02 0.03 0.02 0.02 0.02 0.02 0.02 0.01 0.02 0.02 0.03 0.03 0.03 0.06 0.05 0.06 0.05 0.05 0.10 0.11 0.21 0.20 0.22 0.40 0.34 0.32 0.20 0.28 0.28 0.21 0.26 0.12 0.18 0.14 0.16 0.31 0.29 0.11 0.10 0.03
0.00 0.00 0.00 0.00 0.00 0.00 0.00 0.00 0.00 0.00 0.00 0.00 0.02 0.31 0.20 0.40 0.17 0.16 0.11 0.24 0.13 0.44 0.65 0.54 0.29 0.00 0.00 0.00 0.00 0.01 0.00 0.00 0.00 0.00 0.00 0.00 0.00 0.00 0.00 0.00 0.00 0.00 0.00 0.00 0.00 0.00 0.01 0.01 0.01 0.01 0.02 0.02 0.02 0.02 0.02 0.02 0.01 0.01 0.02 0.02 0.01 0.02 0.02 0.01 0.01 0.01 0.02 0.01 0.03 0.04 0.04 0.05 0.06 0.07 0.09 0.15 0.26 0.23 0.20 0.16 0.48 0.27 0.21 0.25 0.24 0.35 0.24 0.32 0.25 0.17 0.16 0.30 0.14 0.22 0.14 0.08 0.02
0.00 0.00 0.00 0.00 0.00 0.02 0.00 0.00 0.00 0.00 0.02 0.00 0.02 0.63 0.53 0.32 0.08 0.08 0.14 0.31 0.36 0.88 0.54 0.22 0.29 0.17 0.01 0.02 0.00 0.00 0.00 0.00 0.00 0.00 0.00 0.00 0.00 0.00 0.00 0.00 0.00 0.00 0.00 0.00 0.00 0.00 0.00 0.00 0.00 0.02 0.01 0.02 0.03 0.02 0.03 0.02 0.01 0.01 0.01 0.02 0.01 0.01 0.01 0.01 0.01 0.01 0.01 0.01 0.02 0.03 0.06 0.09 0.14 0.11 0.17 0.16 0.11 0.13 0.21 0.24 0.22 0.30 0.24 0.19 0.43 0.21 0.45 0.40 0.25 0.25 0.35 0.46 0.31 0.08 0.09 0.07 0.03
0.00 0.00 0.00 0.00 0.00 0.02 0.00 0.00 0.00 0.00 0.00 0.00 0.01 0.05 0.64 0.24 0.16 0.09 0.09 0.25 0.30 0.36 0.18 0.18 0.25 0.08 0.02 0.00 0.02 0.01 0.01 0.00 0.00 0.00 0.00 0.00 0.00 0.00 0.00 0.00 0.00 0.00 0.00 0.00 0.00 0.00 0.00 0.00 0.00 0.00 0.01 0.02 0.01 0.01 0.02 0.01 0.01 0.01 0.01 0.01 0.01 0.01 0.01 0.01 0.01 0.01 0.01 0.02 0.01 0.03 0.10 0.16 0.16 0.21 0.23 0.19 0.15 0.18 0.17 0.17 0.43 0.33 0.14 0.43 0.34 0.25 0.35 0.23 0.22 0.21 0.18 0.53 0.15 0.10 0.03 0.05 0.04
0.00 0.00 0.00 0.00 0.00 0.01 0.01 0.00 0.00 0.00 0.00 0.00 0.04 0.55 0.27 0.18 0.07 0.03 0.06 0.20 0.16 0.50 0.27 0.14 0.13 0.23 0.05 0.04 0.03 0.03 0.00 0.00 0.00 0.00 0.00 0.00 0.00 0.00 0.00 0.00 0.00 0.00 0.00 0.00 0.00 0.00 0.00 0.00 0.00 0.00 0.00 0.01 0.01 0.02 0.01 0.01 0.01 0.01 0.01 0.01 0.01 0.01 0.01 0.01 0.01 0.02 0.01 0.01 0.01 0.03 0.09 0.06 0.11 0.18 0.21 0.12 0.15 0.22 0.17 0.31 0.31 0.37 0.44 0.46 0.30 0.33 0.38 0.29 0.41 0.20 0.12 0.13 0.12 0.10 0.05 0.04 0.03
0.00 0.00 0.00 0.00 0.00 0.00 0.00 0.00 0.00 0.00 0.00 0.02 0.00 0.05 0.37 0.17 0.03 0.14 0.05 0.03 0.14 0.38 0.40 0.08 0.29 0.32 0.06 0.02 0.03 0.03 0.02 0.01 0.01 0.00 0.00 0.00 0.00 0.00 0.00 0.00 0.00 0.00 0.00 0.00 0.00 0.00 0.00 0.00 0.00 0.00 0.00 0.01 0.01 0.01 0.01 0.01 0.01 0.02 0.02 0.02 0.01 0.02 0.01 0.02 0.02 0.02 0.02 0.01 0.01 0.03 0.06 0.07 0.17 0.11 0.11 0.11 0.11 0.09 0.19 0.30 0.22 0.15 0.19 0.26 0.29 0.31 0.26 0.29 0.22 0.25 0.23 0.10 0.10 0.08 0.05 0.06 0.04
0.00 0.00 0.00 0.00 0.00 0.00 0.02 0.01 0.01 0.00 0.00 0.01 0.04 0.00 0.13 0.15 0.08 0.13 0.05 0.05 0.10 0.17 0.23 0.65 0.05 0.32 0.10 0.08 0.01 0.03 0.03 0.04 0.02 0.00 0.01 0.00 0.00 0.00 0.00 0.00 0.00 0.00 0.00 0.00 0.00 0.00 0.00 0.00 0.00 0.00 0.01 0.00 0.01 0.01 0.01 0.02 0.02 0.02 0.06 0.02 0.02 0.03 0.01 0.02 0.01 0.01 0.05 0.02 0.05 0.19 0.16 0.18 0.13 0.21 0.16 0.14 0.10 0.09 0.18 0.16 0.12 0.28 0.28 0.16 0.23 0.48 0.37 0.31 0.24 0.16 0.19 0.09 0.06 0.12 0.04 0.03 0.02
0.00 0.00 0.00 0.00 0.00 0.00 0.01 0.02 0.00 0.00 0.00 0.00 0.01 0.06 0.03 0.17 0.05 0.07 0.07 0.04 0.06 0.12 0.10 0.36 0.10 0.43 0.12 0.12 0.05 0.04 0.03 0.04 0.02 0.01 0.01 0.00 0.00 0.00 0.00 0.00 0.00 0.00 0.00 0.00 0.00 0.00 0.00 0.00 0.00 0.00 0.01 0.00 0.01 0.01 0.02 0.02 0.02 0.02 0.04 0.02 0.02 0.01 0.01 0.01 0.02 0.02 0.04 0.12 0.11 0.09 0.17 0.10 0.08 0.14 0.10 0.13 0.06 0.17 0.19 0.20 0.21 0.15 0.24 0.24 0.33 0.40 0.20 0.18 0.28 0.13 0.06 0.11 0.11 0.07 0.02 0.01 0.01
0.00 0.00 0.00 0.00 0.00 0.00 0.00 0.00 0.00 0.00 0.00 0.00 0.00 0.01 0.10 0.04 0.02 0.10 0.08 0.08 0.11 0.13 0.25 0.47 0.50 0.17 0.13 0.24 0.14 0.05 0.04 0.03 0.02 0.03 0.01 0.01 0.01 0.01 0.00 0.00 0.00 0.00 0.00 0.00 0.00 0.00 0.00 0.00 0.00 0.01 0.01 0.01 0.01 0.02 0.03 0.02 0.01 0.02 0.02 0.03 0.06 0.04 0.02 0.01 0.02 0.01 0.01 0.01 0.01 0.03 0.05 0.23 0.14 0.12 0.14 0.18 0.14 0.14 0.15 0.38 0.31 0.23 0.21 0.30 0.22 0.26 0.16 0.31 0.15 0.11 0.07 0.08 0.13 0.04 0.02 0.01 0.01
0.00 0.00 0.00 0.00 0.00 0.00 0.00 0.00 0.00 0.01 0.01 0.04 0.00 0.00 0.04 0.15 0.08 0.02 0.07 0.05 0.02 0.06 0.17 0.26 0.26 0.21 0.26 0.19 0.10 0.13 0.12 0.01 0.03 0.00 0.02 0.01 0.01 0.01 0.00 0.00 0.00 0.00 0.00 0.00 0.00 0.00 0.00 0.00 0.00 0.00 0.00 0.01 0.01 0.01 0.01 0.01 0.01 0.01 0.01 0.02 0.02 0.05 0.08 0.07 0.10 0.02 0.02 0.02 0.05 0.05 0.06 0.06 0.12 0.10 0.10 0.11 0.09 0.07 0.10 0.09 0.16 0.20 0.19 0.42 0.21 0.13 0.12 0.06 0.07 0.14 0.06 0.09 0.13 0.06 0.02 0.03 0.01
0.00 0.00 0.00 0.00 0.00 0.00 0.00 0.00 0.00 0.00 0.00 0.00 0.00 0.01 0.01 0.08 0.05 0.02 0.02 0.03 0.02 0.01 0.06 0.47 0.53 0.24 0.13 0.23 0.13 0.26 0.07 0.09 0.01 0.03 0.02 0.02 0.00 0.00 0.00 0.00 0.00 0.00 0.00 0.00 0.00 0.00 0.00 0.00 0.00 0.00 0.00 0.01 0.01 0.00 0.01 0.01 0.01 0.01 0.04 0.03 0.02 0.03 0.05 0.08 0.12 0.08 0.23 0.05 0.10 0.20 0.10 0.12 0.07 0.06 0.10 0.09 0.08 0.08 0.14 0.18 0.24 0.25 0.19 0.13 0.13 0.13 0.11 0.16 0.14 0.09 0.07 0.19 0.09 0.03 0.01 0.01 0.02
0.00 0.00 0.00 0.00 0.00 0.00 0.01 0.00 0.00 0.00 0.00 0.00 0.00 0.01 0.00 0.00 0.01 0.11 0.02 0.05 0.03 0.02 0.04 0.17 0.40 0.29 0.15 0.14 0.13 0.02 0.03 0.06 0.04 0.01 0.03 0.03 0.00 0.00 0.00 0.00 0.00 0.00 0.00 0.00 0.00 0.00 0.00 0.01 0.00 0.01 0.00 0.00 0.00 0.01 0.00 0.01 0.01 0.01 0.01 0.02 0.10 0.07 0.11 0.08 0.22 0.13 0.04 0.03 0.05 0.05 0.06 0.05 0.04 0.07 0.09 0.09 0.07 0.09 0.22 0.22 0.21 0.17 0.11 0.07 0.06 0.26 0.12 0.13 0.12 0.17 0.09 0.10 0.19 0.07 0.02 0.02 0.01
0.00 0.00 0.00 0.00 0.00 0.00 0.00 0.00 0.00 0.00 0.00 0.00 0.00 0.00 0.00 0.00 0.01 0.01 0.04 0.01 0.02 0.03 0.03 0.04 0.41 0.46 0.10 0.08 0.08 0.07 0.08 0.06 0.03 0.04 0.01 0.00 0.01 0.00 0.00 0.00 0.00 0.00 0.00 0.00 0.00 0.00 0.00 0.00 0.00 0.00 0.00 0.00 0.00 0.00 0.01 0.01 0.01 0.02 0.02 0.02 0.10 0.10 0.06 0.07 0.05 0.07 0.05 0.09 0.09 0.06 0.07 0.05 0.09 0.06 0.08 0.10 0.18 0.21 0.12 0.10 0.05 0.06 0.06 0.06 0.06 0.24 0.18 0.15 0.17 0.10 0.12 0.10 0.14 0.20 0.03 0.02 0.02
0.00 0.00 0.00 0.00 0.00 0.00 0.00 0.00 0.00 0.00 0.00 0.00 0.00 0.03 0.00 0.00 0.00 0.01 0.02 0.03 0.02 0.03 0.03 0.05 0.02 0.36 0.43 0.41 0.11 0.07 0.06 0.15 0.05 0.01 0.01 0.00 0.00 0.00 0.00 0.00 0.00 0.00 0.00 0.00 0.00 0.00 0.00 0.00 0.00 0.00 0.01 0.01 0.01 0.01 0.01 0.01 0.03 0.05 0.11 0.16 0.11 0.04 0.09 0.05 0.04 0.02 0.03 0.03 0.04 0.05 0.09 0.09 0.05 0.06 0.04 0.08 0.19 0.17 0.07 0.04 0.05 0.06 0.05 0.08 0.07 0.10 0.09 0.11 0.11 0.15 0.10 0.12 0.08 0.11 0.05 0.01 0.02
0.00 0.00 0.00 0.00 0.00 0.00 0.00 0.00 0.00 0.01 0.01 0.01 0.01 0.00 0.02 0.00 0.02 0.02 0.01 0.03 0.02 0.04 0.03 0.09 0.17 0.16 0.06 0.17 0.07 0.07 0.10 0.10 0.03 0.02 0.04 0.03 0.01 0.01 0.00 0.01 0.00 0.00 0.00 0.00 0.00 0.00 0.00 0.00 0.00 0.00 0.01 0.01 0.01 0.01 0.02 0.03 0.04 0.10 0.05 0.17 0.02 0.02 0.02 0.01 0.00 0.02 0.02 0.02 0.01 0.01 0.03 0.12 0.04 0.05 0.04 0.04 0.05 0.05 0.05 0.05 0.02 0.03 0.05 0.05 0.05 0.10 0.16 0.16 0.14 0.13 0.06 0.04 0.07 0.05 0.02 0.01 0.01
0.00 0.00 0.00 0.00 0.00 0.00 0.00 0.00 0.00 0.00 0.00 0.00 0.00 0.00 0.02 0.02 0.02 0.02 0.00 0.02 0.01 0.03 0.05 0.07 0.12 0.19 0.03 0.08 0.08 0.05 0.11 0.07 0.04 0.03 0.05 0.02 0.01 0.02 0.01 0.00 0.00 0.00 0.00 0.00 0.00 0.00 0.00 0.00 0.00 0.00 0.00 0.00 0.00 0.00 0.02 0.14 0.05 0.02 0.03 0.03 0.03 0.03 0.01 0.01 0.01 0.01 0.01 0.02 0.01 0.01 0.01 0.02 0.03 0.02 0.01 0.02 0.03 0.03 0.02 0.06 0.04 0.02 0.01 0.03 0.05 0.07 0.12 0.11 0.17 0.07 0.07 0.09 0.09 0.04 0.04 0.02 0.01
0.00 0.00 0.00 0.00 0.00 0.00 0.00 0.00 0.00 0.00 0.00 0.06 0.01 0.01 0.03 0.00 0.03 0.00 0.00 0.02 0.01 0.01 0.02 0.00 0.05 0.06 0.03 0.08 0.09 0.09 0.07 0.08 0.09 0.05 0.03 0.06 0.01 0.02 0.02 0.02 0.01 0.00 0.00 0.00 0.00 0.00 0.00 0.00 0.00 0.00 0.00 0.00 0.00 0.00 0.00 0.02 0.04 0.03 0.01 0.02 0.03 0.01 0.01 0.00 0.01 0.01 0.01 0.01 0.01 0.01 0.00 0.01 0.02 0.02 0.02 0.03 0.02 0.03 0.02 0.02 0.06 0.02 0.01 0.03 0.03 0.04 0.05 0.04 0.04 0.07 0.07 0.05 0.04 0.03 0.05 0.01 0.01
0.00 0.00 0.00 0.00 0.00 0.00 0.00 0.00 0.00 0.00 0.00 0.01 0.00 0.00 0.04 0.00 0.01 0.01 0.00 0.01 0.01 0.01 0.02 0.06 0.04 0.03 0.03 0.03 0.07 0.05 0.08 0.08 0.07 0.06 0.02 0.04 0.03 0.01 0.02 0.02 0.05 0.00 0.00 0.00 0.00 0.00 0.00 0.00 0.00 0.00 0.00 0.00 0.00 0.00 0.00 0.00 0.01 0.02 0.01 0.01 0.01 0.01 0.00 0.00 0.00 0.01 0.01 0.01 0.01 0.01 0.00 0.00 0.01 0.02 0.01 0.02 0.02 0.01 0.01 0.01 0.03 0.04 0.02 0.03 0.02 0.02 0.03 0.02 0.03 0.06 0.03 0.05 0.03 0.03 0.02 0.01 0.02
0.00 0.00 0.00 0.00 0.00 0.00 0.00 0.00 0.00 0.01 0.00 0.00 0.00 0.00 0.00 0.03 0.02 0.01 0.00 0.00 0.00 0.01 0.00 0.00 0.01 0.03 0.03 0.05 0.05 0.06 0.08 0.08 0.05 0.04 0.06 0.06 0.02 0.06 0.03 0.03 0.01 0.02 0.03 0.00 0.00 0.00 0.00 0.00 0.00 0.00 0.00 0.00 0.00 0.00 0.00 0.00 0.00 0.01 0.01 0.00 0.01 0.01 0.01 0.01 0.01 0.01 0.01 0.01 0.01 0.01 0.00 0.00 0.00 0.00 0.00 0.00 0.00 0.00 0.01 0.01 0.01 0.03 0.03 0.02 0.01 0.02 0.03 0.04 0.04 0.01 0.02 0.03 0.03 0.03 0.03 0.01 0.01
0.00 0.00 0.00 0.00 0.00 0.00 0.00 0.00 0.00 0.00 0.00 0.00 0.00 0.00 0.00 0.01 0.03 0.00 0.00 0.00 0.00 0.00 0.00 0.00 0.01 0.00 0.00 0.03 0.02 0.04 0.04 0.09 0.04 0.06 0.05 0.04 0.04 0.04 0.02 0.02 0.02 0.06 0.00 0.00 0.00 0.00 0.00 0.00 0.00 0.00 0.00 0.00 0.00 0.00 0.00 0.00 0.00 0.00 0.00 0.00 0.01 0.01 0.01 0.00 0.00 0.00 0.00 0.00 0.00 0.00 0.00 0.01 0.00 0.00 0.00 0.00 0.00 0.00 0.00 0.00 0.00 0.01 0.01 0.02 0.02 0.02 0.02 0.02 0.02 0.01 0.01 0.02 0.03 0.02 0.03 0.03 0.02
0.00 0.00 0.00 0.00 0.00 0.00 0.00 0.00 0.00 0.00 0.00 0.00 0.00 0.00 0.01 0.00 0.00 0.00 0.00 0.00 0.00 0.00 0.00 0.00 0.00 0.00 0.00 0.01 0.01 0.00 0.01 0.13 0.11 0.05 0.07 0.10 0.05 0.07 0.02 0.02 0.00 0.01 0.00 0.00 0.00 0.00 0.00 0.00 0.00 0.00 0.00 0.00 0.00 0.00 0.00 0.00 0.00 0.00 0.00 0.00 0.00 0.01 0.00 0.00 0.00 0.00 0.00 0.00 0.00 0.00 0.00 0.00 0.00 0.00 0.00 0.00 0.00 0.00 0.00 0.00 0.00 0.00 0.01 0.01 0.01 0.02 0.01 0.02 0.02 0.03 0.01 0.01 0.01 0.02 0.02 0.01 0.01
0.00 0.00 0.00 0.00 0.00 0.00 0.00 0.00 0.00 0.00 0.00 0.00 0.00 0.00 0.01 0.01 0.00 0.00 0.00 0.00 0.00 0.00 0.00 0.00 0.00 0.00 0.00 0.01 0.01 0.00 0.01 0.06 0.07 0.06 0.03 0.02 0.03 0.04 0.03 0.01 0.01 0.01 0.02 0.00 0.00 0.00 0.00 0.00 0.00 0.00 0.00 0.00 0.00 0.00 0.00 0.00 0.00 0.00 0.00 0.00 0.00 0.00 0.00 0.00 0.00 0.00 0.00 0.00 0.00 0.00 0.00 0.00 0.00 0.00 0.00 0.00 0.00 0.00 0.00 0.00 0.00 0.00 0.00 0.01 0.01 0.02 0.02 0.02 0.02 0.02 0.01 0.01 0.01 0.01 0.01 0.01 0.02
0.00 0.00 0.00 0.00 0.00 0.00 0.00 0.00 0.00 0.00 0.01 0.00 0.00 0.00 0.00 0.00 0.01 0.00 0.00 0.00 0.00 0.00 0.00 0.00 0.00 0.00 0.00 0.00 0.00 0.00 0.00 0.02 0.09 0.13 0.06 0.05 0.03 0.02 0.08 0.06 0.02 0.02 0.03 0.00 0.00 0.00 0.00 0.00 0.00 0.00 0.00 0.00 0.00 0.00 0.00 0.00 0.00 0.00 0.00 0.00 0.00 0.00 0.00 0.00 0.00 0.00 0.00 0.00 0.00 0.00 0.00 0.00 0.00 0.00 0.00 0.00 0.00 0.00 0.00 0.00 0.00 0.00 0.00 0.01 0.01 0.01 0.02 0.02 0.02 0.01 0.01 0.01 0.01 0.02 0.02 0.02 0.02
0.00 0.00 0.00 0.00 0.00 0.00 0.00 0.00 0.00 0.00 0.00 0.00 0.00 0.00 0.01 0.03 0.00 0.00 0.00 0.00 0.00 0.00 0.00 0.00 0.00 0.00 0.00 0.00 0.00 0.01 0.03 0.01 0.03 0.06 0.06 0.02 0.06 0.01 0.01 0.05 0.04 0.10 0.01 0.01 0.01 0.00 0.00 0.00 0.00 0.00 0.00 0.00 0.00 0.00 0.00 0.00 0.00 0.00 0.00 0.00 0.00 0.00 0.00 0.00 0.00 0.00 0.00 0.00 0.00 0.00 0.00 0.00 0.00 0.00 0.00 0.00 0.00 0.00 0.00 0.00 0.00 0.00 0.00 0.01 0.01 0.01 0.01 0.02 0.02 0.02 0.02 0.01 0.01 0.01 0.01 0.02 0.02
0.00 0.00 0.00 0.00 0.00 0.00 0.00 0.00 0.00 0.00 0.00 0.00 0.00 0.00 0.02 0.00 0.00 0.00 0.00 0.00 0.00 0.00 0.00 0.00 0.00 0.00 0.00 0.00 0.00 0.01 0.00 0.00 0.04 0.01 0.04 0.00 0.01 0.01 0.01 0.04 0.03 0.10 0.05 0.02 0.00 0.00 0.00 0.00 0.00 0.00 0.00 0.00 0.00 0.00 0.00 0.00 0.00 0.00 0.00 0.00 0.00 0.00 0.00 0.00 0.00 0.00 0.00 0.00 0.00 0.00 0.00 0.00 0.00 0.00 0.00 0.00 0.00 0.00 0.00 0.00 0.00 0.01 0.00 0.00 0.00 0.01 0.01 0.01 0.01 0.01 0.02 0.01 0.01 0.01 0.01 0.01 0.02
0.00 0.00 0.00 0.00 0.00 0.00 0.00 0.00 0.00 0.00 0.00 0.00 0.00 0.00 0.02 0.00 0.02 0.00 0.00 0.00 0.00 0.00 0.00 0.00 0.00 0.00 0.00 0.00 0.00 0.00 0.00 0.00 0.00 0.06 0.00 0.00 0.01 0.00 0.02 0.05 0.02 0.00 0.01 0.03 0.00 0.00 0.00 0.00 0.00 0.00 0.00 0.00 0.00 0.00 0.00 0.00 0.00 0.00 0.00 0.00 0.00 0.00 0.00 0.00 0.00 0.00 0.00 0.00 0.00 0.00 0.00 0.00 0.00 0.00 0.00 0.00 0.00 0.00 0.00 0.00 0.00 0.00 0.00 0.00 0.00 0.01 0.01 0.00 0.01 0.01 0.01 0.01 0.01 0.01 0.01 0.01 0.01
0.00 0.00 0.00 0.00 0.00 0.00 0.00 0.00 0.00 0.00 0.00 0.01 0.01 0.02 0.02 0.00 0.05 0.00 0.00 0.00 0.00 0.00 0.00 0.00 0.00 0.00 0.00 0.00 0.00 0.00 0.00 0.00 0.01 0.01 0.03 0.02 0.04 0.02 0.00 0.03 0.07 0.04 0.03 0.00 0.01 0.00 0.00 0.00 0.00 0.00 0.00 0.00 0.00 0.00 0.00 0.00 0.00 0.00 0.00 0.00 0.00 0.00 0.00 0.00 0.00 0.00 0.00 0.00 0.00 0.00 0.00 0.00 0.00 0.00 0.00 0.00 0.00 0.00 0.00 0.00 0.00 0.00 0.00 0.00 0.00 0.01 0.00 0.01 0.01 0.01 0.00 0.01 0.00 0.00 0.00 0.01 0.01
0.00 0.00 0.00 0.00 0.00 0.00 0.00 0.00 0.00 0.00 0.00 0.00 0.03 0.00 0.01 0.00 0.02 0.00 0.00 0.00 0.00 0.00 0.00 0.00 0.00 0.00 0.00 0.00 0.00 0.00 0.00 0.00 0.01 0.02 0.02 0.02 0.04 0.03 0.03 0.05 0.05 0.03 0.01 0.06 0.04 0.07 0.07 0.01 0.00 0.00 0.00 0.00 0.00 0.00 0.00 0.00 0.00 0.00 0.00 0.00 0.00 0.00 0.00 0.00 0.00 0.00 0.00 0.00 0.00 0.00 0.00 0.00 0.00 0.00 0.00 0.00 0.00 0.00 0.00 0.00 0.00 0.00 0.00 0.00 0.00 0.00 0.00 0.00 0.01 0.00 0.00 0.00 0.00 0.01 0.01 0.00 0.01
0.00 0.00 0.00 0.00 0.00 0.00 0.00 0.00 0.00 0.00 0.00 0.00 0.01 0.00 0.01 0.02 0.01 0.00 0.00 0.00 0.00 0.00 0.00 0.00 0.00 0.00 0.00 0.00 0.00 0.00 0.00 0.00 0.00 0.00 0.01 0.02 0.03 0.05 0.05 0.01 0.04 0.04 0.09 0.17 0.14 0.05 0.07 0.03 0.02 0.02 0.00 0.00 0.00 0.00 0.00 0.00 0.00 0.00 0.00 0.00 0.00 0.00 0.00 0.00 0.00 0.00 0.00 0.00 0.00 0.00 0.01 0.00 0.01 0.00 0.00 0.00 0.00 0.00 0.00 0.00 0.00 0.00 0.00 0.00 0.00 0.00 0.00 0.00 0.00 0.00 0.00 0.00 0.00 0.01 0.00 0.00 0.00
0.00 0.00 0.00 0.00 0.01 0.00 0.00 0.00 0.00 0.00 0.00 0.00 0.00 0.03 0.01 0.08 0.04 0.02 0.00 0.00 0.00 0.00 0.00 0.00 0.00 0.00 0.00 0.00 0.00 0.00 0.00 0.00 0.00 0.00 0.01 0.03 0.01 0.03 0.04 0.07 0.03 0.05 0.01 0.06 0.01 0.03 0.08 0.08 0.02 0.08 0.08 0.04 0.02 0.02 0.01 0.00 0.00 0.00 0.00 0.00 0.00 0.00 0.00 0.00 0.00 0.00 0.01 0.01 0.01 0.00 0.00 0.00 0.00 0.00 0.00 0.00 0.00 0.00 0.00 0.00 0.00 0.00 0.00 0.00 0.00 0.00 0.00 0.00 0.00 0.00 0.00 0.00 0.00 0.00 0.00 0.00 0.00